[[{"header":{"parameterUnit":"m.s-1","parameterCategory":1,"la1":30.2991,"la2":30.254,"lo1":-89.0895,"lo2":-89.0444,"dy":0.0017,"dx":0.0017,"nx":28,"ny":28,"refTime":"2023-09-29T03:00:00:Z","depth":0,"parameterNumber":2,"parameterNumberName":"U-component_of_WINDS"},"data":[0,0,0,0,0,0,0,0,0,0,0,0,0,0,0,0,0,0,0,0,0,0,0,0,0,0,0,0,0,0,0,0,0,0,0,0,0,0,0,0,0,0,0,0,0,0,0,0,0,0,0,0,0,0,0,0,0,0,-3.1056,-3.1057,0,-3.1156,-3.1157,-3.1158,-3.1053,-3.1049,-3.1045,-3.1041,-3.1144,-3.1151,-3.1157,0,0,0,0,0,0,0,0,0,0,0,0,0,-3.0778,-3.0783,-3.1056,-3.1058,-3.1059,-3.1156,-3.1157,-3.1158,-3.1054,-3.1049,-3.1044,-3.1039,-3.1142,-3.115,-3.1158,0,0,0,0,0,0,0,0,0,0,0,0,0,-3.089,-3.0785,-3.1056,-3.1018,-3.1016,-3.1155,-3.1157,-3.1159,-3.1055,-3.1049,-3.1043,-3.1037,-3.114,-3.1149,-3.1159,-3.1341,0,0,-3.1189,-3.1193,0,0,0,0,0,0,0,0,-3.0884,-3.09,-3.1023,-3.1021,-3.1019,-3.1086,-3.1096,-3.122,-3.1057,-3.104,-3.1041,-3.1034,-3.113,-3.114,-3.1172,-3.1346,-3.135,-3.119,-3.1196,-3.12,-3.1203,0,0,0,0,0,0,0,-3.0876,-3.0896,-3.1096,-3.1025,-3.1022,-3.0997,-3.1006,-3.1119,-3.1118,-3.1041,-3.1034,-3.1047,-3.1128,-3.1163,-3.1174,-3.1351,-3.1189,-3.1198,-3.1204,-3.1208,-3.1681,-3.1688,0,0,0,0,0,0,-3.0872,-3.089,-3.1092,-3.1099,-3.0935,-3.1007,-3.1017,-3.107,-3.1116,-3.1118,-3.1052,-3.1042,-3.1149,-3.1163,-3.1177,-3.1395,-3.12,-3.1209,-3.1214,-3.1675,-3.1683,-3.169,0,0,0,0,0,0,-3.0867,-3.0891,-3.1088,-3.0992,-3.1015,-3.1018,-3.1079,-3.1076,-3.1111,-3.1125,-3.1124,-3.1088,-3.1145,-3.1163,-3.1301,-3.1397,-3.1213,-3.1222,-3.1667,-3.1677,-3.1687,-3.1831,0,0,0,0,0,0,-3.0859,-3.089,-3.0959,-3.0995,-3.1021,-3.1211,-3.1085,-3.1082,-3.1128,-3.1115,-3.1158,-3.116,-3.1142,-3.1287,-3.1311,-3.1407,-3.123,-3.1658,-3.1672,-3.1683,-3.1818,-3.1845,-3.1868,0,0,0,0,0,-3.085,-3.0995,-3.0963,-3.0988,-3.1107,-3.1217,-3.1232,-3.1208,-3.1136,-3.1206,-3.1215,-3.1158,-3.1382,-3.1302,-3.1328,-3.1429,-3.1652,-3.1668,-3.1682,-3.1807,-3.184,-3.1868,0,0,0,0,0,0,-3.0971,-3.0999,-3.0964,-3.1125,-3.1169,-3.1199,-3.1286,-3.1243,-3.1309,-3.1294,-3.1261,-3.1272,-3.1419,-3.1437,-3.1347,-3.1608,-3.1506,-3.1527,-3.1591,-3.1623,-3.1648,-3.1641,-3.1238,0,0,0,0,0,-3.1016,-3.1103,-3.1123,-3.1263,-3.1287,-3.1283,-3.133,-3.1308,-3.1352,-3.137,-3.1389,-3.1435,-3.1516,-3.157,-3.1645,-3.1819,-3.1829,-3.1901,-3.1927,-3.1947,-3.1966,-3.2063,-3.2096,-3.174,-3.174,-3.1739,0,0,-3.1111,-3.1137,-3.1194,-3.1288,-3.132,-3.1411,-3.13,-3.14,-3.1468,-3.1386,-3.1518,-3.1534,-3.1583,-3.1741,-3.1811,-3.176,-3.2067,-3.1966,-3.1983,-3.1991,-3.2082,-3.2115,-3.2145,-3.175,-3.1748,-3.1747,0,0,-3.1331,-3.1359,-3.148,-3.1514,-3.1564,-3.156,-3.1589,-3.1626,-3.1633,-3.1765,-3.1706,-3.1786,-3.1925,-3.1963,-3.2001,-3.2237,-3.2189,-3.2262,-3.2394,-3.2488,-3.2516,-3.2541,-3.2628,-3.2659,-3.2281,-3.2281,-3.2281,0,-3.1443,-3.1578,-3.1548,-3.1654,-3.1698,-3.1627,-3.1751,-3.1785,-3.1857,-3.189,-3.1831,-3.2006,-3.2034,-3.2201,-3.2259,-3.229,-3.2324,-3.2258,-3.2515,-3.2539,-3.2562,-3.2644,-3.2677,-3.229,-3.2289,-3.2288,-3.2287,0,-3.1714,-3.1808,-3.19,-3.1972,-3.2026,-3.214,-3.2129,-3.2187,-3.216,-3.2163,-3.23,-3.233,-3.2412,-3.2449,-3.2423,-3.2613,-3.2581,-3.2519,-3.2416,-3.2605,-3.2682,-3.2713,-3.2303,-3.2299,-3.2297,-3.2295,0,0,-3.2014,-3.2068,-3.2102,-3.2135,-3.2185,-3.2257,-3.2369,-3.2448,-3.25,-3.2552,-3.2646,-3.2766,-3.271,-3.2753,-3.273,-3.2813,-3.3001,-3.2741,-3.2742,-3.2791,-3.3215,-3.3263,-3.33,-3.2968,-3.2974,-3.2979,-3.3212,0,-3.2237,-3.243,-3.2407,-3.2592,-3.268,-3.2615,-3.2712,-3.2754,-3.276,-3.2836,-3.2842,-3.2929,-3.2847,-3.2873,-3.2951,-3.2962,-3.3086,-3.2944,-3.3058,-3.3062,-3.305,-3.334,-3.339,-3.3609,-3.3242,-3.3247,-3.325,0,-3.2523,-3.2586,-3.278,-3.2818,-3.2854,-3.2942,-3.3014,-3.3087,-3.3133,-3.3132,-3.3181,-3.3145,-3.3258,-3.3151,-3.3308,-3.3212,-3.3256,-3.3269,-3.3277,-3.3288,-3.3169,-3.3361,-3.3677,-3.3711,-3.3297,-3.3293,-3.329,0,-3.2725,-3.2858,-3.2992,-3.3021,-3.3068,-3.3132,-3.3155,-3.3195,-3.3245,-3.3308,-3.334,-3.3415,-3.3457,-3.3517,-3.3502,-3.3425,-3.3664,-3.3555,-3.3667,-3.3668,-3.3722,-3.3719,-3.4053,-3.3748,-3.3747,-3.3746,-3.3746,0,-3.2978,-3.31,-3.3084,-3.3167,-3.3302,-3.3274,-3.3409,-3.3424,-3.3461,-3.3546,-3.3493,-3.3575,-3.355,-3.363,-3.362,-3.3753,-3.3771,-3.3775,-3.3771,-3.3781,-3.3781,-3.3812,-3.3797,-3.3755,-3.3753,-3.3751,-3.375,0,-3.3227,-3.3221,-3.3364,-3.3397,-3.3408,-3.3507,-3.3535,-3.3614,-3.3615,-3.3724,-3.3748,-3.3751,-3.3844,-3.3835,-3.3938,-3.3931,-3.4097,-3.4073,-3.4081,-3.4077,-3.4191,-3.4182,-3.4557,-3.4606,-3.4267,-3.4271,-3.4273,0,-3.339,-3.3483,-3.3526,-3.358,-3.3607,-3.3693,-3.3744,-3.3721,-3.3776,-3.3837,-3.3909,-3.3996,-3.4065,-3.4216,-3.4228,-3.4307,-3.4287,-3.4413,-3.4299,-3.4307,-3.4292,-3.4288,-3.4298,-3.4437,-3.4441,-3.4444,-3.4446,0,-3.3681,-3.3674,-3.3749,-3.3824,-3.3886,-3.3944,-3.3996,-3.4043,-3.4025,-3.409,-3.4184,-3.4237,-3.4343,-3.4432,-3.4507,-3.4531,-3.4488,-3.4482,-3.4513,-3.4525,-3.4527,-3.453,-3.4146,-3.4474,-3.4471,-3.4469,-3.4468,-3.4466,-3.3894,-3.3974,-3.4018,-3.4104,-3.4141,-3.4191,-3.4268,-3.4279,-3.4357,-3.4441,-3.4423,-3.4529,-3.4575,-3.4672,-3.4703,-3.4787,-3.4742,-3.4785,-3.4797,-3.4809,-3.4823,-3.4512,-3.48,-3.48,-3.4799,-3.4798,-3.4798,0,-3.4184,-3.4209,-3.4288,-3.4364,-3.4432,-3.4383,-3.4439,-3.45,-3.4594,-3.464,-3.4709,-3.4818,-3.4904,-3.4923,-3.5006,-3.5069,-3.5052,-3.5092,-3.5088,-3.5095,-3.4858,-3.4824,-3.5106,-3.5105,-3.5105,-3.5105,-3.5105,-3.5105,-3.4343,-3.4477,-3.4475,-3.4627,-3.4651,-3.4755,-3.4792,-3.4839,-3.4876,-3.5,-3.5071,-3.5083,-3.5119,-3.5204,-3.5281,-3.5284,-3.5318,-3.5368,-3.5364,-3.5142,-3.5112,-3.5082,-3.5051,-3.5375,-3.5375,-3.5594,-3.5596,-3.5598]},{"header":{"parameterUnit":"m.s-1","parameterCategory":1,"la1":30.2991,"la2":30.254,"lo1":-89.0895,"lo2":-89.0444,"dy":0.0017,"dx":0.0017,"nx":28,"ny":28,"refTime":"2023-09-29T03:00:00:Z","depth":0,"parameterNumber":3,"parameterNumberName":"V-component_of_WINDS"},"data":[0,0,0,0,0,0,0,0,0,0,0,0,0,0,0,0,0,0,0,0,0,0,0,0,0,0,0,0,0,0,0,0,0,0,0,0,0,0,0,0,0,0,0,0,0,0,0,0,0,0,0,0,0,0,0,0,0,0,-2.2288,-2.2288,0,-2.2298,-2.2298,-2.2298,-2.2287,-2.2287,-2.2286,-2.2286,-2.2295,-2.2296,-2.2296,0,0,0,0,0,0,0,0,0,0,0,0,0,-2.2257,-2.2258,-2.2288,-2.2288,-2.2288,-2.2298,-2.2298,-2.2298,-2.2287,-2.2287,-2.2286,-2.2286,-2.2295,-2.2296,-2.2296,0,0,0,0,0,0,0,0,0,0,0,0,0,-2.2269,-2.2258,-2.2288,-2.2284,-2.2284,-2.2298,-2.2298,-2.2298,-2.2287,-2.2287,-2.2286,-2.2286,-2.2295,-2.2296,-2.2297,-2.2315,0,0,-2.2299,-2.23,0,0,0,0,0,0,0,0,-2.2269,-2.227,-2.2284,-2.2284,-2.2284,-2.2291,-2.2291,-2.2304,-2.2288,-2.2286,-2.2286,-2.2285,-2.2294,-2.2295,-2.2298,-2.2315,-2.2315,-2.23,-2.23,-2.23,-2.2301,0,0,0,0,0,0,0,-2.2268,-2.227,-2.2292,-2.2285,-2.2284,-2.2281,-2.2282,-2.2293,-2.2293,-2.2286,-2.2285,-2.2287,-2.2294,-2.2297,-2.2298,-2.2316,-2.2299,-2.23,-2.2301,-2.2301,-2.2346,-2.2346,0,0,0,0,0,0,-2.2268,-2.2269,-2.2292,-2.2292,-2.2275,-2.2282,-2.2283,-2.2289,-2.2293,-2.2293,-2.2287,-2.2286,-2.2296,-2.2297,-2.2299,-2.2319,-2.23,-2.2301,-2.2302,-2.2345,-2.2346,-2.2346,0,0,0,0,0,0,-2.2267,-2.227,-2.2291,-2.2281,-2.2283,-2.2283,-2.229,-2.229,-2.2293,-2.2294,-2.2294,-2.2291,-2.2296,-2.2297,-2.231,-2.2319,-2.2302,-2.2303,-2.2344,-2.2345,-2.2346,-2.236,0,0,0,0,0,0,-2.2266,-2.227,-2.2277,-2.2281,-2.2284,-2.2303,-2.2291,-2.229,-2.2295,-2.2294,-2.2297,-2.2297,-2.2295,-2.2309,-2.2311,-2.232,-2.2303,-2.2343,-2.2345,-2.2346,-2.2358,-2.2361,-2.2363,0,0,0,0,0,-2.2265,-2.2281,-2.2278,-2.228,-2.2293,-2.2304,-2.2305,-2.2303,-2.2296,-2.2303,-2.2303,-2.2297,-2.2318,-2.231,-2.2313,-2.2322,-2.2343,-2.2344,-2.2346,-2.2357,-2.2361,-2.2363,0,0,0,0,0,0,-2.2278,-2.2281,-2.2278,-2.2295,-2.2299,-2.2302,-2.2311,-2.2307,-2.2313,-2.2311,-2.2307,-2.2308,-2.2322,-2.2323,-2.2315,-2.2339,-2.2329,-2.2331,-2.2337,-2.234,-2.2342,-2.2341,-2.2304,0,0,0,0,0,-2.2283,-2.2292,-2.2294,-2.2309,-2.2312,-2.2311,-2.2316,-2.2313,-2.2317,-2.2319,-2.232,-2.2324,-2.2331,-2.2336,-2.2342,-2.2359,-2.2359,-2.2366,-2.2368,-2.237,-2.2372,-2.2379,-2.2382,-2.2351,-2.2351,-2.2351,0,0,-2.2294,-2.2296,-2.2302,-2.2312,-2.2315,-2.2323,-2.2313,-2.2323,-2.2328,-2.232,-2.2332,-2.2333,-2.2337,-2.2351,-2.2358,-2.2353,-2.238,-2.2372,-2.2374,-2.2374,-2.238,-2.2383,-2.2386,-2.2352,-2.2352,-2.2352,0,0,-2.2316,-2.232,-2.2332,-2.2335,-2.2339,-2.2339,-2.2341,-2.2345,-2.2345,-2.2357,-2.235,-2.2357,-2.237,-2.2372,-2.2375,-2.2397,-2.2392,-2.2399,-2.2411,-2.2418,-2.2421,-2.2423,-2.2429,-2.2432,-2.2401,-2.2401,-2.2401,0,-2.2328,-2.2342,-2.2339,-2.2349,-2.2352,-2.2345,-2.2357,-2.236,-2.2366,-2.2368,-2.2363,-2.2378,-2.238,-2.2394,-2.2399,-2.2402,-2.2404,-2.2399,-2.2421,-2.2423,-2.2424,-2.243,-2.2433,-2.2402,-2.2402,-2.2402,-2.2402,0,-2.2355,-2.2364,-2.2374,-2.2379,-2.2384,-2.2395,-2.2393,-2.2398,-2.2395,-2.2394,-2.2406,-2.2408,-2.2414,-2.2417,-2.2415,-2.243,-2.2427,-2.2421,-2.2411,-2.2428,-2.2434,-2.2436,-2.2403,-2.2403,-2.2403,-2.2402,0,0,-2.2387,-2.239,-2.2394,-2.2395,-2.2399,-2.2406,-2.2415,-2.2421,-2.2425,-2.243,-2.2437,-2.2447,-2.2441,-2.2444,-2.2441,-2.2448,-2.2463,-2.2441,-2.2441,-2.2444,-2.2479,-2.2482,-2.2485,-2.246,-2.246,-2.246,-2.2478,0,-2.2409,-2.2426,-2.2423,-2.2439,-2.2446,-2.2439,-2.2447,-2.245,-2.2449,-2.2455,-2.2454,-2.2461,-2.2453,-2.2455,-2.2461,-2.246,-2.247,-2.2459,-2.2465,-2.2465,-2.2463,-2.2488,-2.2492,-2.2509,-2.248,-2.2481,-2.2481,0,-2.2437,-2.2441,-2.2458,-2.2459,-2.2462,-2.2469,-2.2474,-2.248,-2.2482,-2.2481,-2.2484,-2.2479,-2.2488,-2.2478,-2.2489,-2.2482,-2.2484,-2.2484,-2.2484,-2.2484,-2.2473,-2.2487,-2.2514,-2.2516,-2.2485,-2.2484,-2.2484,0,-2.2456,-2.2467,-2.2478,-2.248,-2.2482,-2.2487,-2.2488,-2.2489,-2.2492,-2.2496,-2.2498,-2.2503,-2.2505,-2.2508,-2.2505,-2.2498,-2.2516,-2.2506,-2.2514,-2.2514,-2.2517,-2.2517,-2.2544,-2.2521,-2.2521,-2.2521,-2.2521,0,-2.248,-2.249,-2.2486,-2.2493,-2.2504,-2.25,-2.251,-2.251,-2.2511,-2.2517,-2.2511,-2.2517,-2.2512,-2.2517,-2.2515,-2.2523,-2.2524,-2.2523,-2.2522,-2.2523,-2.2523,-2.2524,-2.2522,-2.2521,-2.2521,-2.2521,-2.2521,0,-2.2504,-2.2502,-2.2513,-2.2513,-2.2514,-2.2521,-2.2521,-2.2527,-2.2525,-2.2532,-2.2534,-2.2532,-2.2537,-2.2534,-2.2539,-2.2537,-2.2548,-2.2546,-2.2547,-2.2546,-2.2554,-2.2553,-2.2581,-2.2584,-2.256,-2.256,-2.2561,0,-2.2519,-2.2526,-2.2527,-2.2531,-2.2532,-2.2537,-2.254,-2.2536,-2.254,-2.2542,-2.2547,-2.2551,-2.2555,-2.2563,-2.2561,-2.2565,-2.2562,-2.2572,-2.2563,-2.2563,-2.2561,-2.256,-2.256,-2.2574,-2.2574,-2.2574,-2.2575,0,-2.2545,-2.2543,-2.2548,-2.2552,-2.2555,-2.2558,-2.2561,-2.2564,-2.256,-2.2563,-2.2568,-2.2571,-2.2576,-2.258,-2.2583,-2.2583,-2.2578,-2.2577,-2.2579,-2.258,-2.258,-2.2578,-2.2551,-2.2577,-2.2576,-2.2576,-2.2576,-2.2576,-2.2564,-2.257,-2.2571,-2.2575,-2.2577,-2.2579,-2.2583,-2.2582,-2.2586,-2.259,-2.2587,-2.2593,-2.2593,-2.2597,-2.2597,-2.2601,-2.2597,-2.26,-2.26,-2.2601,-2.2601,-2.258,-2.2602,-2.2602,-2.2602,-2.2601,-2.2601,0,-2.2589,-2.2589,-2.2593,-2.2596,-2.26,-2.2595,-2.2597,-2.26,-2.2605,-2.2606,-2.2609,-2.2614,-2.2617,-2.2616,-2.2619,-2.2622,-2.2619,-2.2623,-2.2622,-2.2622,-2.2605,-2.2603,-2.2624,-2.2624,-2.2624,-2.2624,-2.2624,-2.2624,-2.2602,-2.2611,-2.2609,-2.2617,-2.2617,-2.2623,-2.2624,-2.2625,-2.2626,-2.2631,-2.2634,-2.2633,-2.2633,-2.2635,-2.2638,-2.2638,-2.2638,-2.2642,-2.2641,-2.2625,-2.2623,-2.2621,-2.2618,-2.2643,-2.2643,-2.2656,-2.2656,-2.2657]}]]